Location: Fouquenies
(49.4624°N, 2.0492°E)
Time: 23:42:04
(UTC+00:00)

Gblst 52 Del rocket - Pass Details

Date: 03 February 2023
Orbit: 806 x 1364 km, 51.5° (Epoch: 01 April)

Event Time Altitude Azimuth Distance (km) Brightness Sun altitude
Rises 18:36:24 0° 250° (WSW) 3,419 8.9 -17.4°
Reaches altitude 10° 18:38:57 10° 250° (WSW) 2,440 7.8 -17.8°
Maximum altitude 18:44:34 90° 160° (SSE) 813 4.0 -18.7°
Enters shadow 18:47:00 35° 72° (ENE) 1,290 4.6 -19.1°
